WetterOnline ( https://www.wetteronline.de )

Wetter aktuell Bad Hersfeld

Aktuelles Wetter: Bad Hersfeld (273m)

6-stündlich | Neueste Meldungen
Ortszeit Temperatur Wetter
Do, 05.08. 2:00 14.5° C bewölkt
Mi, 04.08. 20:00 17.3° C bewölkt
Mi, 04.08. 14:00 18.3° C bedeckt
Mi, 04.08. 8:00 14.2° C Regen
Mi, 04.08. 2:00 13.3° C Nebel
Di, 03.08. 20:00 15.9° C leicht bewölkt
Di, 03.08. 14:00 15.3° C starker Regen
Di, 03.08. 8:00 13.5° C bedeckt
Ortszeit Temperatur Wetter
Do, 05.08. 3:30 14.4° C bedeckt
Do, 05.08. 3:20 14.4° C bedeckt
Do, 05.08. 3:10 14.6° C bedeckt
Do, 05.08. 3:00 14.4° C bedeckt
Do, 05.08. 2:50 14.4° C bedeckt
Do, 05.08. 2:40 14.4° C bedeckt
Do, 05.08. 2:30 14.4° C bedeckt
Do, 05.08. 2:00 14.5° C bewölkt
Do, 05.08. 1:30 14.3° C bewölkt
Do, 05.08. 1:00 14.3° C bewölkt
Do, 05.08. 0:30 14.4° C bedeckt
Ortszeit Relative Feuchte Sichtweite
Do, 05.08. 2:00 98% 4.7 km
Mi, 04.08. 20:00 84% 40 km
Mi, 04.08. 14:00 74% 35 km
Mi, 04.08. 8:00 96% 10 km
Mi, 04.08. 2:00 99% 0.2 km
Di, 03.08. 20:00 88% 35 km
Di, 03.08. 14:00 93% 0.7 km
Di, 03.08. 8:00 93% 14 km
Ortszeit Relative Feuchte Sichtweite
Do, 05.08. 3:30 98% 5.0 km
Do, 05.08. 3:20 98% -
Do, 05.08. 3:10 99% -
Do, 05.08. 3:00 98% 5.0 km
Do, 05.08. 2:50 98% -
Do, 05.08. 2:40 97% -
Do, 05.08. 2:30 98% 6 km
Do, 05.08. 2:00 98% 4.7 km
Do, 05.08. 1:30 98% 11 km
Do, 05.08. 1:00 97% 14 km
Do, 05.08. 0:30 97% 17 km
Ortszeit Niederschlagsmenge Niederschlagsart
Do, 05.08. 2:00 0.0 l/m2 in 6 Std. -
Mi, 04.08. 20:00 0.4 l/m2 in 12 Std. Regen
Mi, 04.08. 14:00 0.4 l/m2 in 6 Std. Regen
Mi, 04.08. 8:00 0.1 l/m2 in 12 Std. Regen
Mi, 04.08. 2:00 0.0 l/m2 in 6 Std. -
Di, 03.08. 20:00 17 l/m2 in 12 Std. Regen
Di, 03.08. 14:00 6 l/m2 in 6 Std. Regen
Di, 03.08. 8:00 3 l/m2 in 12 Std. -
Ortszeit Niederschlagsmenge Niederschlagsart
Do, 05.08. 3:30 0.0 l/m2 in 1 Std. -
Do, 05.08. 3:20 keine Meldung -
Do, 05.08. 3:10 keine Meldung -
Do, 05.08. 3:00 0.0 l/m2 in 1 Std. -
Do, 05.08. 2:50 keine Meldung -
Do, 05.08. 2:40 keine Meldung -
Do, 05.08. 2:30 0.0 l/m2 in 1 Std. -
Do, 05.08. 2:00 0.0 l/m2 in 1 Std. -
Do, 05.08. 1:30 0.0 l/m2 in 1 Std. -
Do, 05.08. 1:00 0.0 l/m2 in 1 Std. -
Do, 05.08. 0:30 0.0 l/m2 in 1 Std. -
Ortszeit Stärke Spitze Richtung
km/h Bft. km/h Grad Sektor
Do, 05.08. 2:00 0 0 7 - -
Mi, 04.08. 20:00 7 2 29 210° SW
Mi, 04.08. 14:00 4 1 14 190° S
Mi, 04.08. 8:00 4 1 11 220° SW
Mi, 04.08. 2:00 4 1 7 200° S
Di, 03.08. 20:00 4 1 36 40° NO
Di, 03.08. 14:00 7 2 18 150° SO
Di, 03.08. 8:00 2 1 11 190° S
Ortszeit Stärke Spitze Richtung
km/h Bft. km/h Grad Sektor
Do, 05.08. 3:30 4 1 7 140° SO
Do, 05.08. 3:20 4 1 - 140° SO
Do, 05.08. 3:10 2 1 - 190° S
Do, 05.08. 3:00 6 1 7 200° S
Do, 05.08. 2:50 6 1 - 200° S
Do, 05.08. 2:40 4 1 - 200° S
Do, 05.08. 2:30 4 1 7 170° S
Do, 05.08. 2:00 0 0 4 - -
Do, 05.08. 1:30 4 1 4 170° S
Do, 05.08. 1:00 0 0 4 - -
Do, 05.08. 0:30 4 1 4 160° S
Ortszeit Untergrenze Bedeckung Gattung
total tief tief mittel hoch
Do, 05.08. 2:00 60 m 8/8 7/8 - - -
Mi, 04.08. 20:00 2700 m 8/8 7/8 - - -
Mi, 04.08. 14:00 2400 m 8/8 8/8 - - -
Mi, 04.08. 8:00 60 m 8/8 8/8 - - -
Mi, 04.08. 2:00 <30 m 8/8 0/8 - - -
Di, 03.08. 20:00 1500 m 4/8 4/8 - - -
Di, 03.08. 14:00 360 m 8/8 8/8 - - -
Di, 03.08. 8:00 240 m 8/8 8/8 - - -
Ortszeit Bedeckungsgrad in Achtel und Wolkenuntergrenze
Do, 05.08. 3:30 8(30m)
Do, 05.08. 3:20 8(30m)
Do, 05.08. 3:10 8(60m) 8(2400m)
Do, 05.08. 3:00 7(90m) 8(2400m) 8(3300m)
Do, 05.08. 2:50 7(90m) 8(2400m) 8(3300m)
Do, 05.08. 2:40 4(60m) 8(2700m) 8(3300m)
Do, 05.08. 2:30 8(90m) 8(2400m) 8(2700m)
Do, 05.08. 2:00 5(60m) 7(2400m) 8(3300m)
Do, 05.08. 1:30 4(60m) 5(2400m) 8(3300m)
Do, 05.08. 1:00 4(30m) 8(3300m)
Do, 05.08. 0:30 8(3300m)
Ortszeit Luftdruck NN (hPa) Tendenz (hPa in 3 Std.)
Do, 05.08. 2:00 1012 - 0,3
Mi, 04.08. 20:00 1012 - 0,5
Mi, 04.08. 14:00 1013 - 0,5
Mi, 04.08. 8:00 1014 + 0,7
Mi, 04.08. 2:00 1014 + 0,1
Di, 03.08. 20:00 1012 - 0,5
Di, 03.08. 14:00 1014 - 1,0
Di, 03.08. 8:00 1015 - 0,2
Ortszeit Luftdruck NN (hPa) Tendenz (hPa in 3 Std.)
Do, 05.08. 3:30 1012 - 0,7
Do, 05.08. 3:20 1012 keine Meldung
Do, 05.08. 3:10 1012 keine Meldung
Do, 05.08. 3:00 1012 - 0,4
Do, 05.08. 2:50 1012 keine Meldung
Do, 05.08. 2:40 1012 keine Meldung
Do, 05.08. 2:30 1012 - 0,3
Do, 05.08. 2:00 1012 - 0,3
Do, 05.08. 1:30 1012 - 0,3
Do, 05.08. 1:00 1013 - 0,5
Do, 05.08. 0:30 1013 0,0
Ortszeit Schneehöhe (cm)
Do, 05.08. 2:00 -
Mi, 04.08. 20:00 -
Mi, 04.08. 14:00 -
Mi, 04.08. 8:00 -
Mi, 04.08. 2:00 -
Di, 03.08. 20:00 -
Di, 03.08. 14:00 -
Di, 03.08. 8:00 -
Ortszeit Schneehöhe (cm)
Do, 05.08. 3:30 -
Do, 05.08. 3:20 -
Do, 05.08. 3:10 -
Do, 05.08. 3:00 -
Do, 05.08. 2:50 -
Do, 05.08. 2:40 -
Do, 05.08. 2:30 -
Do, 05.08. 2:00 -
Do, 05.08. 1:30 -
Do, 05.08. 1:00 -
Do, 05.08. 0:30 -
Link zu dieser Seite / Seite empfehlen

Das Wetter in ...